Vorticity
3 2 4 4 6 1 1 7 -0 6 8 5 5 4 7 6 10 -9 -9 -1 -5 8 -7 1 8 -4 0 -3 4 1 1 12 7 4 -1 -1 2 6 6 3 6 6 8 7 6 7 4 4 3 3 2 1 2 5 10 9 6 8 10 8 6 5 5 4 3 4 5 5 6 6 4 6 6 3 5 8 8 7 6 8 9 7 5 4 5 8 9 9 7 7 7 6 4 2 3 4 5
4 3 6 4 5 3 2 7 4 5 5 7 5 2 5 3 7 -11 -12 8 3 -1 -2 2 -2 -1 3 3 4 -7 6 17 12 11 5 5 6 9 6 4 6 6 8 6 8 8 5 5 4 3 2 1 2 4 8 10 7 7 10 7 6 6 5 4 3 5 4 4 6 5 5 6 6 4 5 6 5 7 7 6 8 9 8 5 4 6 8 8 7 7 7 8 7 5 3 3 4
4 3 5 4 4 4 2 6 6 4 5 6 4 3 2 6 2 -15 -10 2 4 1 -1 2 4 11 1 -5 1 -2 2 2 3 8 8 7 1 -0 0 3 3 3 6 7 9 8 7 5 4 3 1 1 1 4 7 10 8 7 11 7 6 6 4 4 3 5 4 4 6 5 5 6 6 4 6 6 4 6 7 7 6 8 9 10 6 4 7 8 7 7 7 9 9 7 5 4 3
4 4 4 5 4 5 4 4 6 5 6 4 4 4 1 10 -4 -17 4 4 5 9 2 3 6 14 7 -1 1 -1 -2 -5 -1 4 4 3 2 2 3 6 2 3 7 8 10 8 8 4 3 2 1 2 1 4 6 11 9 8 11 7 6 6 4 4 4 5 4 5 6 5 5 6 5 4 6 6 5 6 7 7 7 7 8 12 12 6 5 7 7 5 6 8 9 9 7 5 4
4 4 5 5 4 6 7 4 5 5 5 4 5 6 2 8 -2 -14 -1 -0 8 16 14 18 16 13 5 0 -1 -3 -0 -4 -5 1 5 2 2 5 5 6 3 7 10 9 9 8 6 3 3 1 1 1 2 4 6 11 10 9 11 7 5 5 4 4 5 5 4 5 6 5 5 5 4 4 5 6 5 6 7 6 6 7 7 10 14 11 5 6 7 5 4 6 8 9 9 7 6
5 5 5 5 6 6 8 7 6 7 4 4 5 6 5 4 -1 -11 -7 -2 -3 -2 1 2 1 6 5 3 4 3 5 6 8 4 0 3 4 7 9 7 7 8 9 8 5 5 3 2 2 -0 2 0 2 4 5 11 10 9 10 7 5 5 5 5 5 5 5 4 6 5 5 5 4 5 5 5 5 6 7 6 6 6 7 8 11 13 8 6 7 6 4 4 6 7 8 8 8
5 4 5 4 7 7 8 8 5 7 5 4 5 5 6 5 1 -10 -0 1 -20 -7 22 20 4 1 4 4 4 6 7 2 4 4 -0 5 7 9 12 9 11 10 6 6 4 3 1 1 1 -0 1 0 2 3 5 11 11 10 9 7 5 6 5 5 5 5 5 5 5 5 5 5 4 5 5 5 5 6 7 6 6 5 7 9 9 11 11 7 6 7 5 4 5 5 6 6 8
5 2 4 4 5 6 7 8 5 7 6 4 6 7 5 5 6 -6 3 3 -25 -18 7 22 22 13 11 10 3 1 11 7 -4 2 5 5 6 6 7 7 9 8 4 4 2 1 2 1 -0 0 1 1 2 3 6 11 12 9 9 7 5 6 4 4 5 5 5 4 5 5 5 5 4 5 4 5 6 7 7 6 6 5 8 10 10 10 11 10 7 7 6 5 4 5 5 5 6
4 2 2 4 4 5 4 4 5 5 7 7 4 8 8 6 9 1 4 4 -10 -19 -21 -4 10 6 8 12 6 -3 5 14 5 4 7 4 6 4 4 6 4 4 2 -0 -0 -1 2 0 -1 0 0 1 1 4 7 12 13 9 8 7 5 5 4 4 5 5 5 4 5 5 6 5 5 4 5 5 6 7 7 6 5 6 7 10 12 11 10 11 9 7 6 6 5 5 5 5 6
3 2 1 3 3 4 3 1 2 2 4 7 4 7 9 10 11 7 4 -4 -13 -22 -20 4 9 -2 7 11 3 5 10 9 6 3 6 6 4 3 3 3 1 3 -0 -4 -2 -1 -0 -3 -2 0 -0 1 1 3 6 13 12 8 9 6 5 5 3 5 6 6 4 5 5 5 5 5 5 4 5 5 6 7 7 6 5 6 5 6 10 12 11 9 10 8 7 6 5 5 5 6 6
2 1 0 3 3 2 2 1 1 0 0 1 3 3 4 11 10 8 10 5 4 -6 -7 15 12 -3 17 30 6 3 14 7 6 5 4 5 1 2 0 1 1 3 -1 -5 -2 -3 -3 -3 -2 -1 -0 1 2 3 7 14 12 7 9 6 6 4 4 6 5 5 4 5 5 5 6 6 5 4 5 5 6 7 6 6 5 5 4 4 6 10 12 10 10 9 7 6 5 5 5 5 5
3 2 2 3 3 2 2 2 2 0 -0 -1 -0 -1 -0 7 6 6 7 6 19 15 11 15 8 0 11 27 10 -2 7 1 2 4 2 1 -1 0 -1 -1 -1 1 -2 -5 -1 -4 -4 -3 -2 -1 1 3 4 5 8 15 12 8 8 6 6 4 5 6 5 5 4 5 4 6 7 6 5 3 5 5 6 7 7 6 5 5 4 4 4 6 10 12 12 9 7 5 5 5 4 4 5
6 3 5 8 5 3 4 3 3 3 3 1 -1 -2 -4 -1 2 3 -4 -8 2 -1 4 4 -9 -3 -4 -2 4 2 3 0 -1 -0 -2 -4 -4 -2 -3 -4 -4 -2 -4 -6 -2 -3 -3 -1 -0 3 4 5 6 7 12 16 11 8 8 6 6 5 5 5 5 4 4 5 5 7 7 7 5 4 6 6 6 6 7 6 5 6 5 5 4 5 7 10 12 10 10 9 8 5 4 3 3
8 5 7 10 7 7 9 5 4 5 7 5 3 2 -0 -1 3 7 -1 -9 -3 -6 3 11 -11 -18 -14 -11 -1 1 0 1 -1 -2 -2 -3 -3 -2 -3 -1 -0 -0 0 0 1 -0 1 2 3 5 5 7 9 10 16 17 10 8 8 6 5 4 5 5 4 4 4 5 6 8 7 7 5 5 6 6 7 6 6 6 6 6 6 6 6 6 6 7 9 9 12 15 14 6 4 4 4
9 7 10 10 9 10 10 9 8 8 7 7 7 6 7 7 7 15 12 -1 9 18 10 14 6 -8 -8 -7 -5 -2 1 1 -1 -2 -2 0 1 3 5 7 11 11 10 9 8 9 8 6 6 6 8 10 12 14 17 14 8 8 7 6 5 4 5 6 4 4 4 5 6 6 7 7 5 5 6 6 6 6 6 6 7 7 7 7 6 7 6 7 7 8 9 11 12 8 6 5 5
8 7 12 10 8 8 7 9 9 11 9 11 14 14 18 13 7 13 17 1 1 20 15 2 -0 -4 -7 -6 -2 2 4 4 4 5 6 9 12 17 20 19 19 17 16 15 13 15 13 12 11 10 12 12 13 14 14 10 7 8 7 6 5 4 6 5 4 4 4 5 5 6 7 7 6 6 6 7 6 6 6 6 7 8 7 7 6 6 6 6 6 7 7 7 9 8 7 6 5
7 8 11 10 9 6 6 6 6 10 8 15 17 15 29 22 6 4 10 10 -3 -2 2 -7 -7 -1 1 3 7 7 8 11 13 16 17 18 20 20 20 21 19 16 16 16 14 15 15 14 13 14 14 13 13 13 12 9 7 8 7 6 4 5 6 5 4 3 3 4 4 7 8 7 7 7 7 6 5 6 6 7 7 8 8 6 5 6 6 7 6 7 7 7 8 7 7 6 5
8 8 9 9 11 10 8 6 6 8 4 15 13 4 23 24 12 7 1 7 5 -3 -8 -6 7 13 12 12 11 12 15 18 17 16 16 17 17 13 9 13 16 15 15 14 13 13 13 14 14 13 13 12 12 13 12 7 7 8 6 5 5 5 5 4 3 2 3 4 6 8 8 7 7 7 6 6 6 7 7 7 7 7 7 5 5 6 5 6 7 7 7 7 7 8 7 7 7
7 7 8 8 9 10 11 9 9 8 3 12 9 -5 5 9 8 13 9 1 -4 1 3 6 18 18 14 12 11 12 13 14 13 10 9 10 11 11 8 10 12 12 13 13 13 12 12 13 13 12 11 12 13 13 10 6 7 8 6 5 4 5 5 5 3 2 3 4 7 9 9 8 7 6 5 6 7 7 7 7 7 7 5 5 5 5 6 6 7 8 8 8 8 8 8 7 7
5 6 6 5 7 9 10 12 11 10 8 9 5 -8 -8 -1 3 6 11 11 2 6 15 13 12 13 11 9 8 8 8 9 9 7 7 5 5 8 6 6 9 10 12 11 10 12 13 12 12 12 12 13 15 11 6 6 8 7 6 5 4 5 5 5 3 2 3 5 8 9 8 7 6 5 5 6 7 7 7 6 6 6 5 4 5 5 6 6 6 7 7 8 8 7 7 6 5
5 4 4 4 6 9 10 12 12 13 12 7 2 -2 -4 -2 3 3 4 10 8 3 9 12 8 7 5 5 8 6 6 7 6 4 5 6 5 5 4 5 6 8 12 11 11 13 12 11 11 11 13 15 13 8 5 7 7 6 5 4 4 5 5 4 2 2 3 5 8 7 6 6 6 5 5 6 6 6 7 7 6 6 4 4 5 6 5 6 6 6 6 6 5 4 4 4 4
5 4 5 4 4 6 7 10 13 20 25 15 -3 -5 8 10 -0 0 2 3 7 5 8 10 4 5 5 4 6 4 5 6 6 7 6 5 3 4 6 7 4 5 13 14 12 13 10 11 13 12 14 13 9 6 6 7 6 6 5 5 5 4 5 4 2 2 3 5 4 4 6 7 6 6 7 7 6 8 8 8 6 3 3 4 5 6 5 6 6 7 7 5 4 2 3 4 3
5 6 6 5 5 5 4 8 11 13 23 25 4 -13 0 12 1 -1 3 0 4 9 12 9 1 3 6 5 5 5 7 5 5 6 6 5 5 6 6 6 6 5 10 13 12 11 11 12 12 13 13 10 7 6 6 6 6 5 5 5 4 4 4 4 3 2 3 3 1 3 6 7 6 7 9 9 8 8 8 8 6 2 2 4 7 7 7 7 6 6 6 5 4 3 3 3 3
5 6 7 7 7 7 4 7 10 4 3 8 4 -7 -8 -3 1 14 20 11 7 6 5 4 2 2 2 3 3 4 6 5 6 5 4 10 15 11 8 12 13 9 9 11 12 10 10 12 11 10 10 8 6 6 6 5 4 4 5 5 4 4 5 5 4 3 2 1 1 3 5 5 5 7 11 11 10 10 8 6 6 6 5 6 7 7 7 7 6 5 4 4 3 3 3 3 4
7 6 6 7 7 9 6 5 9 8 3 -2 -5 2 6 -4 -3 15 21 15 16 21 16 8 6 4 2 4 3 5 8 6 8 12 6 6 19 21 11 11 14 14 12 9 8 6 8 10 9 9 9 7 6 5 5 4 3 4 5 5 5 4 5 6 4 2 1 1 2 2 3 4 4 6 11 11 11 12 10 6 8 10 9 8 7 6 6 5 5 4 4 4 3 4 3 4 4
8 7 6 7 7 8 7 4 7 8 7 5 -2 4 16 13 8 11 12 10 14 23 23 14 7 4 4 4 -1 3 11 5 -1 7 8 4 15 24 13 4 7 10 8 9 9 7 13 12 7 10 10 6 5 5 3 3 4 5 6 5 5 6 5 5 5 3 2 2 1 1 2 3 4 6 10 12 11 11 10 9 11 10 8 7 6 4 5 5 5 4 4 4 4 4 3 4 4
8 7 6 7 6 7 7 4 4 5 5 6 4 2 9 17 19 12 8 9 10 14 19 16 9 5 8 11 5 -2 -0 6 3 4 8 11 13 13 9 7 9 10 5 8 11 11 16 11 5 8 9 7 5 5 4 4 5 6 6 6 6 6 5 5 6 5 3 1 0 1 2 3 5 6 8 10 10 10 9 10 10 7 6 5 4 4 5 5 5 5 5 5 4 4 4 4 4
9 7 6 6 6 6 7 5 3 3 4 6 7 5 3 5 9 6 2 6 9 9 10 14 15 14 10 11 16 5 -5 8 19 15 10 16 15 6 12 12 7 11 6 4 8 10 9 7 10 10 8 8 6 6 5 5 6 5 6 6 6 6 5 5 6 6 4 2 1 1 1 2 4 4 7 9 10 10 9 9 7 5 5 4 4 5 4 5 5 5 5 5 5 5 5 4 4
9 7 6 6 6 5 6 6 5 4 4 5 5 5 7 5 4 5 4 5 8 6 3 8 13 17 8 -1 8 11 4 1 -0 3 8 16 14 9 15 4 -4 8 7 5 9 10 9 8 10 8 8 10 7 8 7 6 5 5 7 6 6 5 5 5 5 6 5 3 3 2 2 2 4 5 7 9 10 10 8 7 7 6 6 5 5 5 4 4 4 5 5 5 5 5 6 5 5
9 8 6 6 6 8 8 6 5 4 3 4 4 4 5 7 6 3 5 6 7 5 4 6 7 12 13 3 5 14 19 12 -5 -6 5 12 11 12 10 -5 3 17 7 5 8 9 11 3 2 6 8 8 7 8 6 6 6 6 8 6 6 6 5 5 5 7 8 8 7 5 4 3 5 7 8 11 11 9 7 7 6 6 7 6 5 4 4 4 4 5 5 5 6 5 6 5 6
9 9 6 4 6 9 10 5 3 4 4 4 6 6 1 5 7 3 6 7 4 6 6 7 6 9 12 5 5 12 16 18 14 10 9 11 10 12 10 2 17 21 2 2 5 8 8 -3 1 7 6 7 6 7 5 6 6 6 7 5 6 6 6 5 4 9 9 8 7 4 4 4 6 7 7 11 10 8 8 6 6 7 7 5 5 4 4 5 5 6 6 6 6 5 6 6 7
7 6 5 4 5 7 9 8 6 5 5 6 7 8 2 4 8 3 5 6 3 6 6 6 8 10 14 7 7 13 11 8 9 9 8 12 9 6 9 8 14 14 2 -1 -3 5 10 2 6 7 4 8 5 5 6 5 5 5 5 5 5 6 6 5 5 7 6 7 7 2 3 5 6 6 8 11 8 8 8 5 7 8 6 4 4 5 5 6 6 6 6 5 5 5 6 6 7
3 3 5 5 4 5 8 10 11 7 5 8 9 8 6 6 7 2 4 6 3 6 8 11 14 14 14 8 3 7 11 7 5 7 6 10 12 8 9 9 13 15 8 0 -6 -1 2 -2 3 6 5 7 5 7 6 4 6 5 3 4 5 5 5 6 7 5 4 6 4 3 4 1 2 5 8 10 9 8 8 7 6 7 7 5 6 6 6 7 7 6 6 5 5 5 6 7 7
4 4 4 5 6 5 6 11 12 8 5 8 10 7 7 7 4 3 5 6 4 5 6 11 17 18 15 10 5 7 10 5 6 14 13 11 11 8 8 8 12 14 5 4 3 -4 -6 -4 -0 5 6 6 6 7 5 7 8 5 4 5 5 5 5 6 6 4 3 3 2 6 5 1 8 14 10 8 9 10 9 9 8 9 10 9 8 7 6 6 6 6 6 6 6 6 7 8 7
6 5 5 5 7 4 6 11 11 9 6 6 10 7 7 9 5 4 3 4 6 8 7 7 9 11 10 9 7 8 12 8 5 8 12 14 10 6 9 7 8 11 5 2 2 -3 -2 -2 -2 3 4 4 5 5 6 8 8 8 6 4 5 6 6 6 5 6 8 6 5 6 8 15 18 15 10 8 10 12 10 10 9 9 9 8 8 7 6 6 6 6 6 7 7 7 7 7 7
8 7 8 6 6 5 7 10 10 10 8 5 7 7 9 9 6 7 4 2 6 7 9 9 7 7 7 7 5 8 14 16 13 5 4 10 12 16 19 13 8 12 14 5 -0 6 6 -3 -2 5 3 1 5 6 5 6 7 8 6 5 7 5 7 9 7 8 7 7 11 8 14 29 18 5 10 12 10 10 9 9 8 7 6 6 7 6 6 5 6 7 6 7 6 6 7 6 7
10 8 8 7 6 6 8 11 8 7 10 7 2 5 15 12 4 6 4 2 7 9 10 10 11 12 9 4 3 8 11 15 19 13 8 8 12 16 13 9 8 13 17 9 5 9 5 1 4 9 9 7 6 6 6 7 7 6 6 8 8 5 7 8 6 6 5 8 15 7 10 26 13 2 10 9 7 7 6 7 6 6 5 5 6 6 6 6 6 7 6 6 6 6 6 6 7
9 7 8 9 8 6 7 12 11 7 12 14 5 1 13 19 12 7 1 -0 7 11 11 11 11 8 6 2 -0 3 4 11 17 15 10 9 14 15 11 13 15 15 11 2 5 4 -2 6 8 7 12 11 7 6 6 8 8 9 11 11 10 4 1 5 7 8 10 13 11 0 6 18 6 0 7 6 5 6 5 7 6 5 6 6 6 6 6 6 6 6 6 6 6 6 6 6 6
9 8 7 7 7 7 8 12 12 8 8 14 14 3 6 19 18 8 2 0 5 10 11 10 8 6 8 8 8 10 9 9 14 15 10 6 12 14 11 15 14 11 8 3 7 2 -3 9 9 4 10 12 9 7 7 9 11 11 9 10 12 7 1 4 9 15 20 18 13 6 7 6 0 4 9 5 6 6 6 7 5 6 6 6 6 5 6 5 5 6 5 6 5 5 5 5 4
10 9 9 7 6 7 10 15 12 3 2 9 11 4 4 15 15 8 5 2 2 7 10 9 7 6 9 10 8 14 20 15 9 11 9 5 10 12 8 10 12 13 14 10 10 1 -5 4 7 4 6 8 11 11 8 8 11 14 9 6 9 14 14 7 5 15 16 9 12 14 3 -2 7 12 7 5 7 7 7 7 6 6 6 6 6 5 5 5 4 5 4 4 4 3 4 4 3
9 9 9 9 7 7 11 18 12 -1 -1 5 2 -2 2 9 13 13 11 7 3 5 7 8 10 8 5 6 3 5 16 21 16 13 13 11 13 13 9 9 11 18 18 11 8 5 2 5 7 6 7 12 18 17 10 8 16 19 13 10 12 18 27 21 13 12 10 10 17 16 4 4 11 8 4 7 8 6 6 6 6 6 6 6 5 4 4 4 3 3 3 3 3 4 3 3 3
10 9 8 10 11 10 14 21 16 2 -1 3 -0 -3 0 7 16 18 12 9 5 3 6 7 11 14 7 2 2 3 9 17 19 15 15 16 16 15 16 11 5 9 15 12 10 8 7 9 10 12 16 18 18 16 12 15 22 15 6 11 12 10 16 20 16 14 19 21 15 9 8 9 7 4 7 8 5 6 7 5 6 6 5 4 4 4 3 3 3 2 3 3 3 3 2 3 4
9 10 9 13 14 5 10 26 21 5 3 5 3 4 6 8 20 24 14 11 11 6 6 7 9 14 12 6 5 7 9 14 14 10 9 13 14 12 12 14 14 10 4 6 12 10 7 8 10 14 14 8 4 7 11 15 20 13 6 12 16 12 10 9 11 17 17 6 -3 5 12 7 5 6 6 5 4 6 5 5 5 4 3 3 3 3 3 3 3 3 3 3 3 2 2 4 4
10 14 12 17 21 1 4 30 17 -6 3 8 -3 -2 6 3 5 13 7 3 14 13 7 8 9 10 10 8 8 10 11 12 10 8 10 12 14 9 2 13 29 26 12 7 11 11 7 5 5 10 10 6 3 3 3 7 14 13 9 16 24 23 17 13 13 13 3 -5 3 14 10 4 5 6 4 5 5 5 5 5 4 3 4 4 4 4 3 3 3 2 3 2 3 3 4 5 5
11 17 13 15 19 0 3 24 4 -15 7 20 8 -0 6 1 -13 -7 3 1 8 15 12 9 9 11 11 5 5 10 13 13 11 10 9 10 15 8 -1 10 23 22 16 14 15 15 11 7 9 15 15 13 12 11 8 6 9 11 12 18 19 16 19 22 14 6 2 6 14 12 4 5 6 4 5 6 6 6 6 5 4 5 5 4 5 4 3 3 2 3 4 4 5 5 5 6 6
11 19 16 12 11 2 9 17 -3 -9 3 9 12 8 8 7 -8 -10 4 3 -4 -2 6 13 11 10 8 5 4 5 8 13 13 12 9 12 18 10 2 7 11 12 13 16 20 19 13 13 14 12 12 14 17 20 20 13 9 12 15 18 20 18 15 11 4 5 10 11 10 5 4 6 5 5 7 6 6 7 5 5 6 6 5 4 3 3 3 4 4 5 5 5 5 6 6 7 8
14 23 14 3 4 10 16 4 -12 2 8 -5 0 7 7 8 4 4 10 11 4 -5 -4 7 16 18 10 5 12 11 8 14 14 11 9 14 21 17 9 7 7 9 11 12 15 13 13 14 5 -2 6 17 21 21 22 18 13 16 22 26 26 15 -1 -5 4 12 12 8 6 5 6 6 6 7 6 5 6 5 4 5 5 4 4 4 3 4 5 4 5 5 5 5 7 8 8 9 10
14 21 10 -4 2 17 18 -6 -18 8 21 9 5 8 10 9 9 17 22 23 18 5 -4 -7 -4 13 13 4 10 14 12 16 16 13 10 11 16 17 12 9 9 8 8 13 16 16 18 8 -9 -7 8 16 20 22 20 16 17 25 28 18 5 -3 -4 4 14 13 9 8 8 8 9 8 7 5 4 5 4 4 4 4 5 5 5 5 5 5 5 5 6 6 6 8 8 9 9 9 9
11 13 9 1 5 15 12 -11 -15 10 14 5 8 6 3 8 13 20 23 26 26 16 9 1 -8 -1 7 7 10 12 14 17 14 13 11 8 8 11 10 8 7 6 8 15 17 16 15 2 -9 0 13 14 15 18 18 21 26 19 2 -12 -10 3 13 14 12 9 8 9 8 8 8 6 5 4 4 4 4 4 6 5 6 6 5 6 5 5 6 6 7 7 8 8 8 8 7 7 7
10 10 11 9 4 4 9 -4 -10 5 -2 -14 7 23 15 6 2 8 14 18 24 22 15 11 9 4 -1 5 15 14 12 12 11 10 8 7 6 6 7 7 6 6 9 13 13 12 9 2 1 6 12 16 13 11 15 20 14 -7 -22 -10 9 18 17 11 10 10 8 7 8 7 7 5 5 5 5 6 6 6 6 6 6 6 6 6 6 7 7 7 7 7 7 7 7 6 7 7 7
11 12 15 17 8 -5 1 2 -5 5 -5 -31 -20 17 32 19 -0 -2 6 9 11 17 16 11 10 9 0 -3 7 15 14 10 11 10 6 6 6 5 6 7 6 7 9 11 10 10 7 4 6 6 8 14 13 10 10 7 1 -5 -0 15 20 14 12 10 9 8 6 7 8 6 6 6 5 6 7 7 7 6 6 6 6 6 7 7 7 7 6 6 6 6 6 6 6 7 8 8 8
15 14 12 11 6 2 5 -2 -8 7 11 -16 -29 -9 15 21 12 2 -0 7 8 1 5 12 10 8 6 -2 -1 11 15 13 11 10 10 10 7 5 6 5 5 7 9 10 8 8 8 7 8 9 10 10 10 10 11 11 12 14 16 15 11 8 9 8 6 6 7 6 6 6 7 7 7 8 7 7 7 6 6 6 6 7 7 6 7 6 5 6 5 5 6 6 7 8 8 9 8
17 7 10 8 -1 14 29 13 -6 2 15 5 -14 -12 4 12 11 7 -0 -1 1 -5 -1 18 28 21 11 7 7 5 7 11 10 8 10 10 8 7 5 4 6 7 7 8 6 7 8 6 7 12 16 13 9 9 11 13 14 12 11 8 6 6 6 7 7 6 6 6 6 7 7 8 9 8 7 7 6 6 6 7 7 6 6 6 6 5 5 6 5 5 6 6 8 8 8 8 8
19 9 16 12 -10 1 26 25 7 -4 1 6 -5 -15 -4 6 2 9 17 4 -8 -3 -2 3 25 37 26 16 11 5 4 7 6 7 6 6 13 13 5 3 5 6 9 8 6 8 5 2 9 16 16 13 11 11 10 10 10 8 8 6 5 6 6 6 6 5 7 8 8 9 9 9 8 7 7 7 7 7 7 7 6 6 6 6 6 6 5 5 5 5 6 7 8 7 8 8 8
17 21 18 2 -12 -5 10 23 26 10 -11 -9 5 -5 -14 1 3 -2 15 18 5 2 -1 -6 6 19 20 14 6 4 12 16 14 13 8 7 13 12 4 2 3 4 7 6 5 8 3 4 15 17 11 9 11 13 10 7 8 7 6 6 5 6 6 6 8 9 10 10 9 9 7 6 6 6 7 6 6 6 5 5 6 6 7 6 6 6 5 5 5 5 6 6 6 7 7 8 9
10 21 20 1 -5 -3 -1 10 26 36 14 -15 -4 4 -14 -13 -13 -27 -17 4 5 -2 1 7 2 -6 2 13 13 9 12 19 20 14 9 9 10 9 6 2 3 4 3 5 8 9 6 11 17 12 5 7 9 12 12 7 6 5 5 6 6 5 6 8 10 11 9 8 7 5 5 6 7 6 5 4 5 6 6 6 7 6 7 7 6 6 5 5 5 4 5 5 4 6 6 7 8
6 7 15 12 6 -6 -4 2 1 28 48 20 1 4 4 0 -9 -9 5 9 2 -4 0 6 3 4 12 15 18 17 10 9 10 7 7 9 6 6 8 3 4 5 2 6 10 9 11 15 16 9 2 1 5 12 14 9 6 6 5 6 6 6 7 6 7 7 5 5 5 6 7 7 6 4 3 5 5 5 6 6 6 6 6 6 6 5 4 4 4 4 5 5 4 4 5 7 9
18 4 1 14 21 -1 -5 5 -11 -7 24 38 28 12 13 15 -2 -1 18 22 17 9 3 -2 -6 -3 -5 -8 4 15 10 4 3 4 7 11 8 6 6 4 4 4 3 7 9 11 15 13 11 7 -1 -3 2 9 14 12 7 6 6 6 6 6 6 6 7 7 6 7 7 7 7 5 5 5 4 5 6 5 6 5 5 5 5 6 5 4 3 3 4 5 5 5 4 5 7 8 10
Height
5863 5864 5865 5866 5867 5869 5870 5870 5872 5873 5873 5874 5877 5880 5883 5885 5885 5887 5890 5891 5890 5890 5891 5889 5889 5890 5890 5891 5890 5892 5892 5892 5891 5890 5890 5892 5895 5895 5894 5893 5892 5894 5894 5894 5893 5893 5892 5892 5892 5891 5891 5890 5889 5888 5887 5886 5886 5885 5885 5884 5884 5883 5883 5882 5882 5881 5880 5879 5878 5877 5876 5874 5873 5872 5871 5869 5868 5867 5865 5864 5863 5863 5862 5861 5861 5860 5860 5859 5858 5858 5857 5857 5856 5856 5855 5855 5854
5860 5861 5862 5863 5865 5866 5869 5868 5869 5871 5871 5872 5875 5878 5882 5884 5882 5885 5889 5890 5890 5890 5890 5888 5888 5886 5886 5888 5888 5890 5891 5890 5891 5891 5892 5893 5894 5894 5893 5891 5891 5893 5893 5892 5892 5892 5891 5891 5891 5890 5890 5889 5888 5887 5887 5886 5885 5885 5884 5884 5883 5883 5883 5882 5881 5880 5879 5879 5878 5877 5875 5874 5873 5872 5871 5869 5868 5866 5865 5864 5863 5863 5862 5861 5860 5860 5859 5859 5858 5858 5857 5856 5856 5856 5856 5855 5855
5857 5859 5859 5861 5862 5863 5866 5866 5866 5868 5869 5869 5873 5877 5880 5882 5883 5885 5887 5888 5889 5888 5887 5885 5884 5882 5882 5886 5885 5887 5889 5889 5890 5891 5892 5893 5893 5893 5892 5890 5890 5891 5891 5891 5891 5890 5890 5890 5889 5889 5889 5888 5887 5887 5886 5885 5885 5885 5884 5884 5883 5883 5882 5882 5881 5880 5879 5878 5877 5876 5875 5874 5873 5872 5871 5869 5868 5866 5865 5864 5863 5862 5861 5861 5860 5860 5859 5859 5858 5857 5857 5856 5856 5856 5855 5855 5855
5855 5856 5856 5858 5860 5861 5863 5863 5863 5865 5866 5868 5871 5875 5878 5881 5883 5883 5884 5886 5887 5886 5884 5882 5882 5882 5881 5881 5881 5884 5885 5886 5888 5889 5891 5892 5892 5891 5890 5889 5889 5890 5890 5890 5890 5889 5889 5888 5888 5888 5887 5887 5886 5886 5885 5885 5884 5884 5884 5883 5883 5882 5882 5881 5880 5880 5879 5878 5877 5876 5875 5874 5873 5872 5870 5869 5868 5866 5865 5864 5863 5862 5861 5860 5860 5859 5859 5858 5858 5857 5857 5856 5856 5856 5855 5855 5855
5852 5852 5853 5855 5857 5858 5859 5859 5860 5862 5864 5866 5869 5873 5875 5878 5881 5881 5883 5885 5884 5883 5882 5881 5880 5880 5879 5878 5879 5882 5882 5883 5885 5887 5889 5890 5890 5890 5889 5888 5888 5889 5889 5888 5888 5888 5888 5887 5887 5887 5886 5886 5885 5885 5884 5884 5884 5883 5883 5882 5882 5882 5881 5881 5880 5879 5878 5878 5877 5876 5875 5874 5873 5871 5870 5869 5867 5866 5865 5864 5863 5862 5861 5860 5859 5859 5858 5858 5857 5857 5856 5856 5856 5856 5855 5855 5855
5849 5849 5850 5852 5853 5854 5855 5856 5857 5858 5862 5864 5865 5870 5873 5875 5877 5874 5876 5880 5880 5880 5877 5877 5877 5876 5876 5875 5877 5879 5879 5880 5883 5885 5887 5888 5889 5889 5888 5887 5888 5888 5888 5887 5887 5886 5886 5886 5886 5885 5885 5885 5884 5884 5883 5883 5883 5882 5882 5882 5881 5881 5881 5880 5879 5878 5878 5877 5876 5875 5874 5873 5872 5871 5870 5868 5867 5866 5865 5864 5863 5862 5861 5860 5859 5858 5858 5857 5857 5856 5856 5856 5856 5855 5855 5855 5854
5845 5846 5847 5848 5849 5850 5851 5852 5853 5855 5860 5862 5862 5867 5870 5873 5874 5870 5871 5874 5877 5877 5874 5872 5873 5873 5874 5873 5875 5876 5876 5878 5881 5883 5884 5886 5887 5886 5886 5886 5887 5887 5886 5885 5885 5885 5885 5885 5884 5884 5884 5883 5883 5883 5882 5882 5882 5882 5881 5881 5881 5880 5880 5879 5879 5878 5877 5876 5876 5875 5874 5873 5872 5870 5869 5868 5867 5866 5864 5863 5862 5861 5860 5860 5859 5858 5857 5857 5856 5856 5856 5856 5855 5855 5855 5854 5854
5841 5843 5844 5844 5845 5846 5847 5849 5851 5853 5857 5860 5860 5864 5868 5870 5873 5873 5871 5870 5871 5873 5873 5870 5869 5870 5871 5872 5874 5874 5874 5876 5878 5880 5881 5883 5884 5884 5884 5886 5887 5886 5884 5884 5884 5883 5883 5883 5883 5883 5883 5882 5882 5882 5881 5881 5881 5881 5880 5880 5880 5880 5879 5879 5878 5877 5876 5876 5875 5874 5873 5872 5871 5870 5869 5868 5867 5865 5864 5863 5862 5861 5860 5859 5858 5858 5857 5856 5856 5856 5855 5855 5855 5855 5855 5854 5854
5837 5839 5841 5841 5842 5843 5843 5845 5848 5850 5854 5858 5859 5861 5865 5868 5870 5873 5872 5869 5868 5871 5872 5870 5868 5867 5867 5870 5873 5873 5873 5874 5876 5878 5879 5880 5881 5882 5883 5885 5885 5883 5883 5883 5882 5882 5882 5882 5882 5882 5881 5881 5880 5880 5880 5880 5880 5879 5879 5879 5879 5879 5879 5878 5877 5877 5876 5875 5874 5873 5873 5872 5871 5869 5868 5867 5866 5865 5864 5863 5862 5861 5860 5859 5858 5857 5857 5856 5856 5856 5855 5855 5855 5855 5854 5854 5854
5833 5835 5838 5837 5837 5839 5840 5842 5845 5849 5852 5856 5857 5859 5862 5865 5867 5869 5869 5870 5870 5870 5869 5868 5867 5866 5864 5867 5871 5872 5871 5871 5873 5876 5877 5877 5877 5879 5882 5884 5883 5881 5881 5881 5880 5880 5880 5880 5880 5880 5880 5879 5879 5879 5879 5879 5878 5878 5878 5878 5878 5878 5878 5877 5876 5876 5875 5874 5873 5873 5872 5871 5870 5869 5868 5867 5866 5865 5864 5863 5862 5861 5860 5859 5858 5857 5857 5856 5856 5855 5855 5855 5855 5854 5854 5854 5853
5829 5831 5834 5833 5833 5835 5837 5840 5843 5847 5850 5853 5854 5857 5860 5862 5865 5865 5866 5869 5869 5867 5866 5865 5866 5866 5863 5864 5867 5870 5870 5870 5871 5873 5874 5874 5874 5877 5881 5882 5880 5879 5879 5878 5879 5879 5878 5878 5878 5878 5878 5878 5878 5878 5878 5877 5877 5877 5877 5877 5877 5877 5877 5876 5875 5875 5874 5873 5873 5872 5871 5870 5869 5868 5867 5866 5866 5865 5864 5863 5862 5861 5860 5859 5858 5857 5857 5856 5856 5855 5855 5855 5854 5854 5854 5854 5853
5826 5828 5829 5829 5830 5832 5835 5837 5839 5843 5846 5849 5851 5855 5857 5859 5862 5862 5863 5866 5865 5863 5864 5863 5864 5863 5861 5862 5864 5866 5869 5870 5870 5870 5871 5871 5872 5875 5878 5879 5878 5877 5877 5876 5876 5876 5876 5876 5876 5876 5876 5876 5876 5876 5876 5876 5876 5876 5876 5876 5876 5876 5876 5875 5875 5874 5873 5873 5872 5871 5870 5870 5868 5868 5867 5866 5865 5865 5864 5863 5862 5861 5860 5859 5858 5858 5857 5856 5856 5855 5855 5855 5854 5854 5854 5853 5853
5822 5825 5825 5826 5828 5830 5832 5833 5836 5839 5842 5845 5849 5853 5855 5857 5858 5858 5860 5861 5859 5860 5862 5861 5860 5860 5859 5859 5861 5864 5867 5868 5868 5868 5867 5868 5869 5872 5875 5876 5876 5875 5874 5874 5873 5873 5873 5873 5873 5874 5874 5874 5874 5874 5874 5874 5874 5875 5875 5875 5875 5875 5875 5874 5874 5873 5873 5872 5871 5870 5870 5869 5868 5867 5866 5865 5865 5864 5864 5863 5862 5861 5860 5859 5859 5858 5857 5856 5856 5855 5855 5854 5854 5854 5853 5853 5853
5819 5821 5821 5822 5824 5826 5827 5830 5832 5835 5837 5842 5847 5851 5852 5854 5854 5854 5857 5854 5854 5858 5859 5858 5859 5860 5856 5856 5859 5861 5864 5864 5865 5865 5864 5865 5866 5869 5872 5872 5872 5872 5871 5871 5870 5871 5871 5870 5871 5871 5872 5872 5872 5872 5872 5872 5873 5873 5874 5874 5874 5873 5873 5873 5873 5872 5872 5871 5870 5870 5869 5868 5867 5867 5866 5865 5864 5864 5864 5863 5862 5861 5860 5859 5859 5858 5857 5856 5856 5855 5855 5854 5854 5853 5853 5853 5852
5815 5817 5817 5817 5820 5822 5824 5827 5830 5832 5835 5839 5844 5847 5849 5850 5849 5851 5852 5849 5851 5855 5856 5856 5857 5859 5855 5854 5857 5858 5860 5861 5861 5861 5860 5862 5863 5865 5867 5867 5867 5867 5867 5866 5867 5867 5868 5868 5868 5869 5869 5870 5870 5870 5870 5871 5871 5872 5872 5873 5872 5872 5872 5872 5872 5872 5871 5870 5869 5869 5868 5868 5867 5866 5866 5865 5864 5864 5863 5863 5863 5862 5860 5859 5859 5858 5857 5856 5855 5855 5854 5853 5853 5853 5852 5852 5852
5811 5812 5812 5813 5815 5818 5821 5824 5828 5830 5833 5838 5842 5845 5846 5846 5846 5849 5849 5847 5850 5851 5854 5854 5855 5857 5853 5853 5855 5855 5858 5859 5858 5858 5857 5859 5860 5861 5862 5863 5862 5862 5862 5862 5863 5863 5864 5865 5866 5866 5867 5867 5868 5868 5868 5869 5870 5870 5871 5871 5871 5871 5871 5871 5871 5871 5870 5869 5868 5868 5868 5867 5867 5866 5865 5864 5864 5863 5863 5863 5863 5862 5861 5860 5858 5857 5856 5856 5855 5854 5854 5853 5852 5852 5852 5851 5851
5806 5806 5807 5809 5811 5815 5819 5822 5825 5828 5832 5837 5839 5841 5842 5843 5844 5845 5845 5845 5847 5848 5849 5850 5852 5853 5850 5850 5853 5854 5856 5856 5856 5855 5855 5856 5857 5858 5858 5858 5857 5857 5858 5858 5859 5859 5860 5862 5863 5864 5864 5865 5865 5865 5866 5867 5868 5869 5869 5869 5869 5869 5869 5869 5870 5869 5869 5868 5868 5867 5867 5867 5866 5866 5865 5864 5863 5863 5862 5862 5862 5862 5861 5860 5859 5857 5856 5855 5854 5854 5853 5852 5852 5852 5851 5851 5850
5800 5801 5803 5806 5809 5813 5818 5821 5823 5826 5831 5834 5835 5836 5839 5841 5840 5840 5841 5840 5842 5844 5844 5847 5850 5849 5847 5848 5850 5853 5854 5853 5853 5852 5852 5853 5854 5855 5855 5854 5853 5853 5854 5855 5856 5856 5858 5859 5860 5861 5861 5862 5862 5863 5864 5865 5866 5866 5867 5867 5867 5868 5867 5868 5868 5868 5867 5867 5867 5867 5866 5866 5866 5865 5865 5864 5863 5862 5861 5861 5861 5861 5861 5860 5859 5858 5856 5855 5854 5853 5853 5852 5852 5851 5851 5850 5850
5795 5798 5799 5803 5808 5811 5816 5818 5820 5824 5827 5831 5832 5832 5834 5835 5834 5834 5835 5835 5838 5841 5841 5845 5846 5846 5846 5846 5848 5850 5850 5849 5849 5849 5850 5850 5851 5852 5851 5850 5850 5850 5852 5852 5852 5854 5855 5857 5857 5858 5858 5859 5860 5860 5861 5862 5863 5864 5865 5865 5866 5866 5866 5866 5866 5866 5866 5866 5866 5866 5866 5865 5865 5865 5864 5863 5862 5861 5860 5860 5860 5860 5859 5859 5859 5858 5857 5855 5854 5853 5852 5852 5851 5851 5850 5850 5849
5791 5794 5796 5802 5807 5809 5812 5815 5818 5820 5824 5830 5829 5827 5828 5828 5829 5829 5830 5832 5835 5837 5839 5844 5843 5843 5844 5844 5846 5846 5847 5847 5846 5846 5846 5847 5848 5849 5848 5848 5848 5848 5849 5849 5850 5852 5853 5853 5854 5854 5855 5856 5857 5858 5859 5860 5861 5862 5863 5864 5864 5864 5864 5864 5865 5865 5865 5866 5866 5866 5865 5865 5865 5864 5863 5862 5861 5860 5859 5859 5858 5858 5858 5858 5858 5857 5857 5856 5855 5854 5853 5852 5851 5851 5850 5849 5849
5788 5790 5794 5801 5804 5805 5809 5812 5815 5817 5822 5827 5824 5822 5822 5822 5825 5826 5828 5831 5832 5833 5837 5841 5840 5840 5840 5840 5842 5843 5843 5844 5843 5843 5842 5843 5846 5846 5846 5845 5846 5846 5847 5847 5847 5849 5849 5849 5850 5850 5851 5852 5853 5855 5856 5858 5859 5860 5861 5861 5862 5862 5863 5863 5863 5864 5864 5865 5865 5865 5865 5864 5864 5863 5862 5861 5860 5860 5859 5858 5858 5857 5857 5856 5856 5856 5856 5855 5854 5854 5853 5852 5852 5851 5850 5849 5848
5784 5787 5792 5798 5800 5803 5806 5809 5812 5815 5819 5822 5820 5819 5817 5816 5820 5823 5827 5829 5829 5831 5834 5836 5836 5836 5837 5837 5838 5839 5840 5840 5840 5839 5839 5840 5843 5843 5843 5843 5843 5845 5846 5845 5845 5846 5845 5846 5846 5847 5848 5849 5851 5852 5854 5855 5856 5858 5858 5859 5860 5860 5861 5861 5862 5862 5863 5864 5864 5864 5865 5864 5863 5862 5861 5860 5859 5859 5859 5858 5857 5856 5856 5855 5855 5855 5854 5854 5854 5853 5853 5852 5852 5851 5850 5850 5848
5780 5784 5789 5793 5796 5800 5804 5806 5809 5812 5815 5817 5816 5815 5813 5811 5815 5822 5826 5826 5827 5830 5832 5831 5830 5832 5835 5835 5835 5837 5837 5836 5835 5834 5835 5837 5838 5838 5838 5838 5840 5842 5844 5843 5843 5843 5843 5843 5844 5845 5846 5847 5848 5850 5852 5853 5854 5855 5856 5857 5858 5858 5859 5860 5860 5861 5862 5863 5863 5863 5863 5863 5862 5861 5860 5859 5859 5858 5858 5858 5857 5856 5855 5855 5854 5854 5853 5853 5853 5852 5852 5851 5851 5850 5850 5849 5848
5777 5781 5785 5790 5794 5796 5801 5803 5805 5807 5808 5810 5809 5810 5810 5809 5813 5820 5823 5823 5823 5828 5830 5827 5825 5827 5831 5832 5833 5833 5831 5829 5829 5831 5835 5838 5838 5837 5837 5837 5837 5838 5840 5841 5841 5841 5841 5841 5842 5843 5844 5845 5847 5848 5850 5851 5852 5852 5854 5856 5856 5857 5858 5858 5859 5859 5860 5861 5862 5862 5862 5862 5861 5861 5860 5859 5858 5858 5857 5857 5856 5855 5855 5854 5853 5853 5852 5852 5851 5851 5851 5850 5850 5849 5849 5848 5847
5773 5777 5781 5786 5790 5793 5798 5800 5801 5803 5803 5804 5805 5806 5809 5808 5812 5819 5819 5819 5818 5823 5827 5824 5823 5824 5825 5829 5828 5826 5825 5825 5828 5833 5837 5839 5839 5839 5840 5841 5840 5839 5837 5837 5838 5837 5838 5837 5838 5840 5842 5844 5845 5847 5848 5849 5850 5851 5853 5854 5855 5856 5856 5857 5857 5858 5859 5860 5860 5861 5861 5861 5860 5860 5859 5858 5858 5857 5856 5856 5855 5854 5854 5853 5853 5852 5851 5851 5851 5850 5850 5849 5848 5848 5847 5846 5845
5771 5774 5778 5782 5786 5790 5794 5796 5797 5799 5799 5800 5803 5805 5808 5809 5813 5817 5817 5816 5814 5819 5823 5820 5819 5818 5820 5824 5822 5821 5823 5825 5829 5832 5833 5833 5833 5836 5839 5841 5840 5840 5837 5835 5834 5834 5835 5835 5836 5839 5842 5843 5844 5845 5846 5847 5849 5850 5852 5853 5853 5854 5854 5855 5856 5857 5858 5859 5859 5859 5859 5859 5859 5858 5858 5857 5857 5856 5856 5856 5855 5854 5853 5853 5852 5852 5851 5851 5850 5850 5849 5848 5847 5846 5845 5845 5844
5768 5770 5774 5778 5782 5786 5790 5792 5793 5794 5794 5796 5801 5803 5807 5809 5811 5813 5814 5815 5813 5813 5816 5816 5814 5813 5816 5819 5817 5820 5824 5824 5824 5826 5827 5827 5827 5829 5832 5835 5836 5838 5838 5836 5835 5834 5835 5836 5836 5838 5841 5842 5843 5844 5845 5847 5849 5849 5850 5851 5852 5852 5853 5854 5855 5856 5856 5857 5857 5858 5858 5858 5857 5857 5856 5856 5855 5855 5855 5855 5855 5854 5853 5853 5852 5852 5851 5851 5850 5849 5848 5847 5846 5845 5845 5844 5843
5764 5766 5769 5773 5777 5781 5785 5788 5789 5790 5791 5793 5798 5801 5804 5807 5807 5810 5812 5812 5810 5808 5810 5813 5813 5812 5815 5817 5817 5821 5824 5824 5822 5824 5826 5826 5825 5826 5828 5830 5832 5835 5837 5835 5835 5835 5835 5837 5837 5838 5840 5841 5841 5842 5845 5847 5848 5848 5849 5849 5850 5850 5851 5852 5853 5854 5854 5855 5856 5856 5857 5856 5856 5855 5854 5854 5854 5854 5854 5854 5853 5853 5852 5852 5852 5851 5851 5850 5849 5848 5847 5846 5845 5845 5844 5843 5842
5759 5761 5764 5768 5772 5775 5780 5783 5785 5787 5788 5789 5792 5796 5801 5804 5805 5809 5809 5807 5807 5805 5806 5811 5812 5813 5815 5816 5819 5822 5823 5824 5824 5825 5827 5826 5826 5827 5828 5830 5831 5833 5835 5834 5834 5835 5836 5837 5837 5836 5838 5840 5840 5842 5844 5845 5846 5847 5847 5847 5848 5849 5850 5850 5851 5851 5852 5853 5854 5855 5855 5855 5855 5854 5853 5852 5852 5852 5852 5852 5852 5852 5852 5852 5852 5851 5850 5849 5848 5847 5846 5845 5845 5844 5843 5842 5841
5755 5757 5759 5763 5766 5770 5775 5779 5780 5783 5785 5785 5788 5793 5799 5802 5803 5806 5804 5803 5804 5803 5804 5808 5809 5812 5814 5815 5818 5820 5821 5821 5823 5825 5826 5826 5826 5827 5828 5830 5830 5831 5832 5833 5834 5836 5837 5837 5836 5836 5837 5838 5839 5841 5842 5843 5844 5845 5845 5846 5847 5848 5849 5849 5849 5850 5851 5852 5853 5854 5854 5854 5853 5852 5852 5851 5851 5851 5851 5851 5851 5851 5851 5852 5851 5850 5849 5848 5847 5846 5845 5845 5844 5843 5842 5841 5840
5751 5753 5753 5757 5760 5764 5770 5774 5776 5780 5782 5783 5786 5791 5797 5799 5800 5801 5800 5799 5802 5801 5802 5805 5808 5811 5812 5813 5814 5816 5817 5818 5820 5822 5823 5824 5824 5824 5826 5828 5829 5829 5830 5832 5834 5835 5836 5836 5835 5835 5836 5837 5839 5840 5840 5841 5842 5843 5844 5845 5846 5847 5848 5848 5848 5849 5850 5851 5851 5851 5851 5851 5851 5850 5850 5850 5849 5850 5850 5850 5850 5850 5851 5851 5850 5849 5848 5847 5846 5845 5844 5844 5843 5842 5841 5840 5839
5745 5746 5747 5751 5756 5761 5766 5770 5773 5777 5779 5782 5785 5788 5793 5796 5796 5797 5797 5797 5800 5800 5801 5803 5807 5810 5811 5811 5812 5813 5814 5814 5817 5818 5819 5820 5821 5822 5824 5825 5827 5827 5826 5828 5831 5833 5833 5833 5833 5835 5835 5837 5838 5838 5839 5840 5840 5841 5842 5843 5844 5845 5846 5847 5847 5847 5848 5848 5848 5848 5847 5847 5848 5849 5849 5848 5848 5848 5848 5849 5849 5850 5850 5850 5849 5848 5847 5846 5845 5844 5843 5842 5841 5840 5840 5839 5838
5738 5740 5743 5748 5753 5757 5762 5767 5772 5775 5777 5780 5783 5786 5790 5792 5792 5794 5794 5795 5798 5798 5799 5801 5804 5806 5808 5809 5809 5811 5812 5812 5814 5815 5816 5818 5818 5820 5821 5822 5824 5824 5823 5824 5828 5828 5828 5829 5832 5834 5835 5836 5837 5838 5838 5838 5839 5840 5840 5842 5844 5844 5845 5845 5845 5845 5846 5846 5846 5846 5846 5845 5847 5849 5849 5847 5846 5846 5847 5848 5848 5849 5848 5848 5847 5846 5845 5844 5843 5843 5842 5841 5840 5839 5838 5837 5836
5733 5736 5741 5745 5750 5754 5759 5765 5770 5773 5774 5777 5781 5784 5786 5787 5788 5790 5791 5793 5795 5796 5797 5799 5801 5802 5804 5806 5806 5808 5809 5810 5812 5814 5815 5816 5816 5817 5818 5819 5821 5822 5823 5823 5824 5824 5825 5828 5831 5832 5834 5835 5836 5836 5836 5837 5838 5838 5838 5841 5843 5842 5843 5843 5843 5844 5844 5844 5844 5845 5845 5845 5847 5848 5848 5847 5846 5846 5846 5846 5847 5847 5847 5846 5845 5845 5844 5843 5842 5841 5841 5840 5839 5838 5837 5836 5835
5730 5734 5739 5743 5747 5752 5757 5763 5767 5770 5773 5775 5777 5780 5782 5783 5785 5787 5789 5790 5792 5793 5795 5797 5799 5800 5801 5802 5803 5805 5806 5807 5810 5812 5813 5814 5814 5814 5815 5816 5818 5820 5821 5822 5822 5823 5826 5828 5829 5830 5831 5833 5834 5834 5834 5835 5836 5836 5836 5838 5840 5840 5841 5841 5841 5842 5843 5843 5844 5844 5844 5844 5845 5846 5847 5846 5845 5845 5845 5844 5845 5845 5844 5844 5844 5843 5842 5841 5841 5840 5839 5839 5838 5837 5836 5835 5834
5730 5735 5739 5742 5746 5751 5756 5761 5765 5767 5770 5773 5775 5777 5779 5779 5782 5785 5786 5788 5789 5791 5793 5795 5796 5798 5799 5799 5800 5802 5803 5805 5807 5809 5810 5811 5811 5812 5813 5815 5817 5818 5819 5820 5822 5824 5826 5827 5827 5828 5829 5831 5832 5832 5833 5833 5835 5835 5834 5836 5837 5838 5839 5840 5840 5841 5842 5842 5842 5842 5842 5842 5843 5845 5846 5845 5844 5843 5843 5843 5843 5842 5842 5842 5842 5841 5841 5840 5840 5839 5838 5837 5836 5835 5834 5833 5832
5728 5733 5737 5740 5744 5749 5753 5758 5764 5765 5766 5770 5773 5775 5775 5775 5779 5782 5783 5785 5787 5789 5791 5793 5794 5795 5797 5797 5798 5800 5801 5802 5803 5805 5807 5807 5808 5809 5811 5813 5816 5817 5817 5819 5821 5823 5824 5826 5826 5827 5828 5829 5830 5830 5831 5832 5834 5834 5833 5834 5835 5835 5837 5837 5838 5839 5839 5840 5840 5840 5841 5842 5843 5843 5842 5843 5843 5842 5841 5841 5841 5841 5841 5841 5840 5840 5839 5839 5838 5837 5837 5836 5835 5834 5833 5832 5830
5725 5729 5734 5738 5743 5747 5751 5756 5763 5764 5762 5766 5771 5773 5772 5771 5775 5778 5780 5782 5783 5786 5789 5790 5791 5793 5794 5795 5796 5798 5799 5799 5801 5803 5804 5805 5806 5807 5809 5811 5813 5814 5815 5817 5819 5820 5822 5824 5825 5825 5826 5826 5827 5828 5829 5831 5832 5832 5832 5833 5833 5834 5835 5835 5836 5836 5837 5838 5839 5839 5840 5840 5840 5840 5840 5841 5841 5840 5840 5840 5839 5839 5839 5839 5839 5838 5838 5837 5836 5836 5835 5834 5833 5832 5831 5830 5829
5722 5727 5731 5735 5740 5745 5749 5753 5761 5762 5760 5763 5767 5770 5770 5769 5771 5774 5776 5778 5780 5783 5786 5788 5789 5790 5792 5793 5794 5796 5797 5797 5799 5801 5802 5802 5804 5805 5807 5808 5810 5811 5813 5814 5816 5818 5819 5821 5822 5823 5823 5823 5824 5825 5827 5829 5829 5829 5831 5831 5831 5832 5833 5834 5834 5835 5836 5836 5837 5838 5838 5838 5837 5838 5840 5841 5840 5839 5839 5838 5838 5838 5838 5838 5837 5837 5836 5835 5835 5834 5833 5833 5832 5830 5829 5828 5827
5719 5724 5727 5731 5737 5741 5745 5751 5758 5759 5759 5762 5765 5767 5768 5766 5768 5770 5772 5775 5777 5780 5784 5786 5787 5788 5790 5791 5792 5793 5794 5795 5796 5798 5800 5801 5802 5802 5804 5805 5807 5809 5811 5812 5814 5815 5817 5818 5820 5821 5821 5821 5821 5822 5824 5825 5826 5827 5828 5828 5829 5829 5831 5832 5833 5833 5834 5835 5836 5836 5837 5837 5838 5839 5840 5840 5839 5838 5837 5836 5836 5836 5836 5836 5835 5835 5834 5834 5833 5832 5832 5831 5830 5828 5827 5826 5825
5715 5721 5724 5729 5734 5738 5743 5750 5755 5757 5758 5760 5762 5764 5764 5763 5764 5767 5769 5773 5775 5778 5781 5784 5785 5787 5788 5789 5790 5791 5792 5793 5794 5795 5797 5799 5800 5800 5801 5803 5805 5807 5809 5810 5812 5813 5815 5816 5817 5818 5818 5818 5818 5819 5821 5822 5823 5824 5825 5826 5826 5827 5828 5830 5831 5832 5832 5833 5834 5835 5837 5838 5838 5839 5839 5838 5837 5836 5835 5835 5834 5834 5834 5834 5834 5833 5833 5832 5832 5831 5830 5829 5828 5827 5825 5824 5823
5713 5717 5722 5728 5733 5737 5742 5749 5753 5755 5755 5755 5758 5761 5759 5759 5762 5764 5767 5770 5773 5776 5779 5781 5783 5785 5787 5787 5788 5789 5790 5791 5793 5794 5796 5797 5798 5798 5799 5801 5803 5806 5807 5808 5810 5812 5813 5814 5815 5815 5815 5816 5816 5817 5818 5818 5820 5821 5823 5824 5825 5826 5827 5828 5829 5830 5831 5832 5833 5835 5836 5836 5837 5836 5836 5835 5834 5833 5833 5833 5832 5832 5832 5832 5832 5831 5831 5830 5830 5829 5829 5827 5826 5825 5823 5822 5820
5710 5715 5722 5728 5732 5736 5740 5746 5751 5753 5752 5752 5755 5758 5757 5756 5759 5761 5764 5768 5771 5773 5776 5778 5780 5783 5784 5785 5786 5787 5788 5790 5792 5793 5794 5795 5796 5796 5798 5799 5801 5803 5804 5806 5808 5810 5811 5812 5813 5813 5813 5814 5814 5815 5816 5816 5817 5819 5821 5822 5823 5825 5826 5827 5828 5829 5831 5832 5833 5833 5833 5833 5833 5833 5832 5832 5832 5832 5831 5831 5831 5831 5830 5830 5830 5830 5829 5829 5828 5827 5827 5825 5824 5823 5822 5820 5818
5709 5715 5722 5726 5731 5734 5737 5744 5750 5752 5753 5753 5754 5756 5756 5754 5757 5761 5763 5766 5768 5770 5773 5775 5778 5780 5781 5782 5783 5785 5787 5789 5790 5790 5791 5793 5793 5794 5795 5796 5797 5799 5802 5803 5806 5808 5809 5810 5811 5811 5811 5812 5812 5813 5814 5814 5815 5816 5817 5819 5821 5823 5825 5826 5827 5829 5830 5831 5831 5830 5830 5830 5830 5830 5830 5830 5830 5830 5830 5829 5829 5829 5829 5828 5828 5828 5827 5827 5826 5825 5824 5823 5822 5821 5819 5818 5816
5708 5714 5720 5724 5729 5733 5735 5740 5747 5750 5751 5751 5751 5753 5753 5752 5755 5759 5760 5762 5765 5768 5771 5773 5775 5777 5778 5780 5781 5783 5785 5786 5787 5788 5789 5791 5792 5793 5793 5794 5796 5798 5800 5801 5803 5805 5807 5808 5809 5810 5809 5809 5810 5811 5812 5813 5813 5814 5815 5816 5819 5821 5823 5824 5825 5827 5828 5828 5828 5828 5828 5828 5828 5828 5828 5828 5829 5828 5828 5827 5827 5827 5827 5826 5826 5826 5825 5825 5824 5823 5822 5820 5819 5818 5816 5815 5814
5707 5713 5718 5723 5727 5731 5734 5737 5741 5745 5746 5746 5747 5749 5750 5750 5752 5755 5756 5759 5762 5766 5769 5771 5773 5775 5776 5778 5780 5782 5784 5784 5785 5787 5788 5789 5790 5791 5792 5793 5795 5797 5799 5800 5801 5803 5805 5806 5807 5807 5808 5808 5808 5808 5809 5811 5811 5811 5813 5815 5817 5819 5820 5822 5823 5824 5825 5825 5826 5826 5827 5826 5826 5827 5827 5827 5827 5826 5826 5826 5825 5825 5825 5824 5824 5823 5823 5822 5821 5820 5818 5817 5816 5814 5813 5812 5810
5706 5711 5715 5721 5725 5728 5732 5733 5735 5738 5738 5741 5744 5747 5748 5747 5749 5752 5754 5758 5761 5764 5767 5770 5772 5773 5775 5777 5779 5781 5782 5783 5785 5786 5787 5788 5788 5789 5791 5792 5794 5796 5798 5799 5800 5801 5803 5804 5805 5805 5806 5806 5806 5806 5807 5808 5809 5810 5811 5813 5815 5817 5819 5821 5822 5822 5823 5824 5825 5825 5825 5825 5825 5825 5825 5825 5825 5824 5824 5824 5823 5823 5823 5822 5822 5821 5820 5819 5818 5817 5815 5814 5813 5811 5809 5808 5807
5703 5707 5710 5717 5723 5726 5729 5729 5730 5731 5732 5737 5742 5745 5746 5745 5745 5749 5754 5757 5759 5760 5764 5768 5770 5772 5774 5776 5778 5780 5781 5782 5784 5786 5787 5787 5787 5789 5790 5791 5793 5795 5797 5798 5798 5799 5801 5802 5803 5804 5804 5804 5804 5805 5805 5806 5807 5808 5810 5812 5815 5817 5818 5820 5821 5821 5822 5823 5823 5823 5824 5824 5823 5823 5823 5823 5823 5822 5822 5822 5822 5821 5821 5820 5819 5818 5817 5816 5815 5813 5812 5811 5810 5808 5806 5805 5803
5697 5701 5706 5713 5719 5721 5723 5724 5725 5727 5731 5736 5739 5742 5743 5742 5742 5747 5752 5754 5756 5758 5762 5765 5767 5770 5773 5774 5777 5779 5779 5781 5783 5785 5786 5786 5787 5788 5789 5791 5792 5794 5796 5797 5797 5798 5799 5801 5801 5802 5802 5803 5803 5803 5803 5805 5806 5808 5810 5812 5814 5816 5818 5819 5819 5820 5821 5821 5822 5822 5822 5822 5822 5821 5821 5821 5821 5820 5820 5820 5819 5819 5818 5817 5816 5815 5814 5813 5812 5811 5809 5808 5807 5805 5803 5802 5800
5691 5696 5701 5708 5713 5715 5717 5720 5722 5725 5731 5735 5737 5739 5741 5740 5741 5745 5750 5753 5755 5757 5759 5762 5765 5769 5771 5773 5775 5777 5778 5779 5782 5784 5785 5785 5786 5787 5788 5790 5792 5794 5795 5796 5797 5797 5798 5799 5800 5800 5801 5801 5802 5802 5803 5804 5806 5808 5810 5812 5813 5815 5816 5817 5817 5818 5819 5820 5820 5820 5820 5820 5820 5819 5819 5819 5819 5818 5818 5817 5817 5816 5815 5814 5813 5812 5811 5810 5809 5808 5807 5805 5804 5802 5800 5798 5797
5689 5695 5700 5705 5709 5711 5715 5719 5721 5725 5729 5732 5735 5737 5738 5739 5741 5744 5748 5752 5753 5755 5756 5758 5762 5766 5769 5772 5774 5776 5777 5779 5780 5782 5783 5785 5786 5786 5788 5789 5791 5793 5794 5795 5796 5796 5796 5797 5798 5799 5799 5800 5800 5801 5802 5803 5805 5807 5809 5810 5812 5813 5814 5815 5816 5817 5818 5818 5818 5818 5818 5818 5818 5817 5817 5817 5816 5816 5815 5815 5814 5813 5813 5812 5811 5810 5809 5808 5806 5805 5804 5803 5801 5799 5797 5795 5793
5689 5695 5698 5702 5706 5710 5714 5718 5721 5724 5727 5729 5732 5734 5735 5737 5740 5742 5746 5748 5750 5751 5753 5755 5758 5763 5767 5771 5773 5775 5777 5778 5779 5780 5781 5784 5785 5785 5787 5788 5790 5792 5793 5794 5795 5795 5795 5796 5797 5797 5798 5799 5799 5800 5800 5802 5803 5805 5807 5809 5810 5811 5812 5813 5814 5815 5815 5816 5816 5816 5816 5816 5815 5815 5815 5814 5813 5813 5813 5812 5811 5811 5810 5809 5808 5807 5806 5805 5804 5802 5801 5799 5797 5795 5794 5792 5790
5687 5692 5694 5699 5705 5708 5713 5717 5720 5723 5724 5727 5730 5732 5734 5735 5737 5739 5741 5744 5746 5747 5750 5754 5757 5760 5765 5768 5772 5774 5776 5777 5778 5778 5780 5782 5783 5784 5786 5787 5789 5791 5792 5793 5793 5794 5794 5795 5795 5796 5796 5797 5798 5798 5799 5800 5802 5804 5805 5807 5808 5809 5810 5811 5812 5813 5813 5813 5814 5814 5814 5813 5813 5812 5812 5811 5811 5810 5810 5809 5809 5808 5808 5807 5806 5805 5803 5802 5801 5799 5798 5796 5794 5792 5791 5789 5787
5685 5689 5693 5699 5703 5705 5709 5713 5716 5719 5721 5724 5728 5731 5733 5733 5735 5735 5735 5737 5741 5743 5748 5754 5756 5759 5762 5766 5769 5772 5774 5776 5776 5777 5779 5780 5781 5782 5784 5786 5787 5789 5790 5791 5792 5792 5793 5793 5794 5794 5795 5796 5797 5797 5798 5799 5801 5803 5804 5805 5806 5807 5809 5810 5810 5811 5811 5811 5811 5811 5811 5811 5810 5810 5809 5809 5808 5808 5808 5807 5807 5806 5805 5804 5803 5802 5801 5799 5798 5796 5794 5793 5791 5789 5787 5786 5784
5683 5689 5694 5697 5699 5701 5704 5708 5712 5715 5718 5721 5725 5730 5731 5731 5733 5733 5731 5732 5737 5741 5746 5753 5756 5759 5761 5764 5767 5769 5771 5773 5774 5775 5777 5779 5780 5781 5783 5784 5786 5787 5788 5789 5790 5791 5791 5792 5792 5793 5793 5794 5795 5796 5797 5798 5800 5801 5802 5803 5805 5806 5807 5808 5809 5809 5809 5809 5809 5809 5808 5808 5807 5807 5807 5807 5806 5806 5806 5805 5804 5803 5803 5801 5800 5799 5797 5796 5794 5793 5791 5789 5788 5786 5784 5782 5780
5681 5688 5692 5695 5697 5700 5703 5706 5710 5713 5716 5719 5723 5727 5729 5730 5731 5732 5731 5731 5736 5739 5744 5750 5755 5758 5761 5763 5765 5767 5769 5771 5772 5773 5775 5777 5779 5780 5782 5783 5784 5786 5787 5788 5789 5790 5790 5790 5791 5792 5792 5793 5794 5795 5796 5797 5799 5800 5801 5802 5803 5804 5805 5806 5806 5807 5807 5807 5806 5806 5806 5805 5805 5805 5805 5805 5805 5804 5804 5803 5802 5801 5799 5798 5797 5795 5794 5792 5791 5789 5788 5786 5784 5782 5780 5779 5777
5678 5682 5687 5691 5694 5699 5702 5705 5709 5712 5715 5718 5721 5724 5727 5729 5731 5732 5731 5732 5734 5737 5741 5747 5752 5756 5759 5761 5762 5765 5767 5769 5770 5772 5774 5776 5778 5779 5781 5782 5783 5784 5785 5786 5788 5788 5788 5789 5790 5790 5791 5791 5792 5793 5795 5796 5797 5798 5799 5800 5801 5802 5802 5803 5804 5804 5804 5804 5804 5804 5803 5803 5803 5803 5803 5803 5802 5802 5801 5800 5799 5797 5796 5795 5793 5792 5790 5789 5787 5786 5784 5782 5780 5778 5777 5775 5773
5677 5679 5684 5688 5691 5697 5701 5704 5707 5710 5712 5715 5719 5722 5725 5728 5731 5732 5732 5732 5733 5735 5739 5743 5748 5753 5757 5759 5761 5763 5765 5767 5768 5770 5773 5774 5776 5778 5779 5781 5782 5783 5784 5785 5786 5786 5787 5788 5788 5789 5790 5790 5791 5792 5793 5794 5796 5797 5798 5799 5799 5800 5801 5801 5802 5802 5802 5802 5802 5801 5801 5801 5801 5801 5801 5800 5800 5799 5798 5797 5795 5794 5793 5791 5790 5788 5787 5785 5783 5782 5780 5778 5777 5775 5773 5771 5768